Bettles, AK

3:02 PM AKDT on July 20, 2019 (GMT -0800)
Bettles

Weather History for PABT - May, 2019

Change the Weather History Date:

Friday, May 24, 2019

  Actual Average Record
Temperature  
Mean Temperature 58 °F -  
Max Temperature 69 °F 58 °F 83 °F (1960)
Min Temperature 46 °F 37 °F 26 °F (1964)
Degree Days  
Heating Degree Days 8    
Growing Degree Days 8 (Base 50)    
Moisture  
Dew Point 36 °F    
Average Humidity 51    
Maximum Humidity 93    
Minimum Humidity 13    
Precipitation  
Precipitation 0.00 in - - ()
Sea Level Pressure  
Sea Level Pressure 30.03 in    
Wind  
Wind Speed 7 mph (South)    
Max Wind Speed 17 mph    
Max Gust Speed 24 mph    
Visibility 10 miles    
Events Fog    
Averages and records for this station are not official NWS values.
T = Trace of Precipitation, MM = Missing Value Source: NWS Daily Summary

Daily Weather History Graph

Daily Weather History Graph

Search for Another Location

Airport or City:

Astronomy

May. 24, 2019 Rise Set
Actual Time 3:29 AM AKDT 12:41 AM AKDT
Civil Twilight Sun does not set Sun does not set
Nautical Twilight Sun does not set Sun does not set
Astronomical Twilight Sun does not set Sun does not set
Moon 4:37 AM AKDT (5/24) 9:16 AM AKDT (5/24)
Length of Visible Light 24h 00m
Length of Day
21h 11m
Waning Gibbous, 67% of the Moon is Illuminated
May 24
Waning Gibbous
May 26
Last Quarter
Jun 3
New
Jun 9
First Quarter
Jun 17
Full

Hourly Weather History & Observations

Time (AKDT) Temp. Dew Point Humidity Pressure Visibility Wind Dir Wind Speed Gust Speed Precip Events Conditions
12:53 AM 55.0 °F 48.9 °F 80% 29.91 in 10.0 mi South 3.5 mph - N/A   Mostly Cloudy
1:53 AM 52.0 °F 46.9 °F 83% 29.94 in 10.0 mi SSE 3.5 mph - N/A   Mostly Cloudy
2:53 AM 50.0 °F 46.9 °F 89% 29.95 in 10.0 mi SE 6.9 mph - N/A   Mostly Cloudy
3:53 AM 48.9 °F 46.9 °F 93% 29.96 in 10.0 mi SE 3.5 mph - N/A   Scattered Clouds
4:53 AM 46.9 °F 45.0 °F 93% 29.98 in 10.0 mi SE 5.8 mph - N/A   Scattered Clouds
5:53 AM 48.9 °F 46.0 °F 90% 29.99 in 10.0 mi Variable 5.8 mph - N/A Fog Partly Cloudy
6:53 AM 50.0 °F 45.0 °F 83% 30.01 in 10.0 mi SSE 5.8 mph - N/A   Partly Cloudy
7:53 AM 51.1 °F 44.1 °F 77% 30.02 in 10.0 mi SE 6.9 mph - N/A   Scattered Clouds
8:53 AM 53.1 °F 43.0 °F 69% 30.03 in 10.0 mi South 8.1 mph - N/A   Partly Cloudy
9:53 AM 55.9 °F 42.1 °F 60% 30.05 in 10.0 mi SSE 5.8 mph - N/A   Partly Cloudy
10:01 AM 55.4 °F 42.8 °F 63% 30.02 in 10.0 mi SSE 5.8 mph - N/A   Partly Cloudy
10:06 AM 57.0 °F 42.1 °F 57% 30.05 in 10.0 mi SE 6.9 mph - N/A   Partly Cloudy
10:53 AM 59.0 °F 42.1 °F 53% 30.05 in 10.0 mi South 4.6 mph - N/A   Partly Cloudy
11:53 AM 61.0 °F 43.0 °F 52% 30.05 in 10.0 mi Variable 6.9 mph - N/A   Partly Cloudy
12:53 PM 63.0 °F 39.9 °F 43% 30.05 in 10.0 mi Variable 6.9 mph - N/A   Scattered Clouds
1:53 PM 66.9 °F 39.9 °F 37% 30.04 in 10.0 mi SSW 9.2 mph - N/A   Scattered Clouds
2:53 PM 66.9 °F 37.0 °F 33% 30.04 in 10.0 mi SW 11.5 mph 20.7 mph N/A   Scattered Clouds
3:53 PM 68.0 °F 28.9 °F 23% 30.04 in 10.0 mi SW 15.0 mph 21.9 mph N/A   Scattered Clouds
4:53 PM 66.9 °F 18.0 °F 15% 30.04 in 10.0 mi WSW 17.3 mph 24.2 mph N/A   Scattered Clouds
5:53 PM 66.9 °F 19.9 °F 17% 30.05 in 10.0 mi WSW 15.0 mph 21.9 mph N/A   Scattered Clouds
6:53 PM 64.0 °F 21.0 °F 19% 30.05 in 10.0 mi WSW 13.8 mph - N/A   Mostly Cloudy
7:53 PM 63.0 °F 19.9 °F 19% 30.06 in 10.0 mi SW 11.5 mph - N/A   Mostly Cloudy
8:53 PM 61.0 °F 18.0 °F 19% 30.06 in 10.0 mi WSW 11.5 mph - N/A   Scattered Clouds
9:53 PM 57.9 °F 23.0 °F 26% 30.07 in 10.0 mi SW 8.1 mph - N/A   Mostly Cloudy
10:53 PM 55.9 °F 25.0 °F 30% 30.07 in 10.0 mi SW 6.9 mph - N/A   Mostly Cloudy
11:53 PM 51.1 °F 26.1 °F 38% 30.08 in 10.0 mi Calm Calm - N/A   Mostly Cloudy